Date String (YYYY-MM-DD hh:mm:ss) UTC,Instrument flags,Ambient pressure (hPa),Sample flow (lpm),Bypass flow (lpm),Sample temperature (°C),Ambient temperature (°C),ASC tube jacket temperature (°C),LED temperature (°C),Box temperature (°C),Sample RH (%),Span deviation,Mass concentration (μg/m³),Mass concentration (μg/m³),Mass concentration (μg/m³)
DateTimeUTC,F1_M11,P_M11,Q1_M11,Q2_M11,T1_M11,T2_M11,T3_M11,T4_M11,T5_M11,U1_M11,ZSPAN_M11,X0_M11,X2_M11,X1_M11
2022-10-29 13:00:00,,0830.4,5.00,0.00,23.3,21.6,00.0,32.2,25.0,08.9,0000.0,0002.54,0001.89,0001.65
2022-10-29 13:01:00,,0830.4,5.01,0.00,23.3,21.6,00.0,32.2,25.0,08.9,0000.0,0002.46,0001.87,0001.66
2022-10-29 13:02:00,,0830.4,5.01,0.00,23.3,21.6,00.0,32.2,25.0,08.9,0000.0,0002.46,0001.89,0001.67
2022-10-29 13:03:00,,0830.4,4.99,0.00,23.3,21.6,00.0,32.2,25.1,08.9,0000.0,0002.46,0001.90,0001.68
2022-10-29 13:04:00,,0830.4,5.00,0.00,23.3,21.6,00.0,32.2,25.0,08.8,0000.0,0002.37,0001.88,0001.68
2022-10-29 13:05:00,,0830.4,5.01,0.00,23.3,21.6,00.0,32.2,25.0,08.8,0000.0,0002.34,0001.88,0001.69
2022-10-29 13:06:00,,0830.4,5.01,0.00,23.3,21.6,00.0,32.2,25.0,08.8,0000.0,0002.36,0001.87,0001.69
2022-10-29 13:07:00,,0830.4,4.98,0.00,23.2,21.5,00.0,32.2,25.0,08.7,0000.0,0002.27,0001.84,0001.70
2022-10-29 13:08:00,,0830.4,5.01,0.00,23.2,21.5,00.0,32.2,25.0,08.7,0000.0,0002.25,0001.83,0001.71
2022-10-29 13:09:00,,0830.4,5.00,0.00,23.2,21.5,00.0,32.2,25.0,08.7,0000.0,0002.25,0001.82,0001.70
2022-10-29 13:10:00,,0830.4,5.00,0.00,23.2,21.5,00.0,32.1,25.0,08.7,0000.0,0002.25,0001.82,0001.69
2022-10-29 13:11:00,,0830.4,5.00,0.00,23.2,21.5,00.0,32.1,25.0,08.7,0000.0,0002.71,0001.83,0001.68
2022-10-29 13:12:00,,0830.5,4.98,0.00,23.2,21.5,00.0,32.1,25.0,08.6,0000.0,0002.95,0001.84,0001.66
2022-10-29 13:13:00,,0830.5,5.02,0.00,23.2,21.5,00.0,32.1,24.9,08.5,0000.0,0003.92,0001.84,0001.65
2022-10-29 13:14:00,,0830.5,4.97,0.00,23.2,21.5,00.0,32.1,24.9,08.6,0000.0,0004.03,0001.84,0001.63
2022-10-29 13:15:00,,0830.5,5.01,0.00,23.2,21.5,00.0,32.1,24.9,08.5,0000.0,0004.07,0001.84,0001.62
2022-10-29 13:16:00,,0830.6,5.00,0.00,23.2,21.5,00.0,32.1,24.9,08.2,0000.0,0004.05,0001.82,0001.60
2022-10-29 13:17:00,,0830.5,5.01,0.00,23.2,21.5,00.0,32.1,24.9,07.8,0000.0,0003.92,0001.76,0001.55
2022-10-29 13:18:00,,0830.6,5.00,0.00,23.2,21.5,00.0,32.1,25.0,07.8,0000.0,0003.84,0001.70,0001.50
2022-10-29 13:19:00,,0830.6,4.99,0.00,23.2,21.5,00.0,32.1,24.9,07.8,0000.0,0003.76,0001.64,0001.45
2022-10-29 13:20:00,,0830.6,5.01,0.00,23.2,21.5,00.0,32.0,25.0,07.8,0000.0,0003.65,0001.58,0001.40
2022-10-29 13:21:00,,0830.6,5.00,0.00,23.1,21.5,00.0,32.1,24.9,07.8,0000.0,0003.69,0001.56,0001.37
2022-10-29 13:22:00,,0830.6,5.01,0.00,23.1,21.5,00.0,32.0,24.9,07.8,0000.0,0003.18,0001.50,0001.33
2022-10-29 13:23:00,,0830.7,5.01,0.00,23.1,21.5,00.0,32.0,24.9,07.8,0000.0,0002.92,0001.45,0001.30
2022-10-29 13:24:00,,0830.6,5.00,0.00,23.1,21.5,00.0,32.0,24.9,08.0,0000.0,0001.91,0001.41,0001.26
2022-10-29 13:25:00,,0830.6,4.98,0.00,23.1,21.4,00.0,32.0,24.8,08.1,0000.0,0001.79,0001.37,0001.24
2022-10-29 13:26:00,,0830.7,5.01,0.00,23.1,21.4,00.0,32.0,24.8,08.2,0000.0,0001.78,0001.35,0001.21
2022-10-29 13:27:00,,0830.7,5.00,0.00,23.1,21.4,00.0,32.0,24.8,08.4,0000.0,0001.75,0001.34,0001.21
2022-10-29 13:28:00,,0830.8,4.98,0.00,23.1,21.4,00.0,32.0,24.9,08.4,0000.0,0001.79,0001.36,0001.22
2022-10-29 13:29:00,,0830.8,5.01,0.00,23.1,21.4,00.0,32.0,24.8,08.4,0000.0,0001.87,0001.40,0001.25
2022-10-29 13:30:00,,0830.8,5.01,0.00,23.1,21.4,00.0,32.0,24.8,08.6,0000.0,0001.98,0001.46,0001.28
2022-10-29 13:31:00,,0830.8,4.98,0.00,23.1,21.4,00.0,32.0,24.8,08.6,0000.0,0002.14,0001.53,0001.32
2022-10-29 13:32:00,,0830.8,5.01,0.00,23.1,21.4,00.0,32.0,24.9,08.4,0000.0,0002.22,0001.57,0001.35
2022-10-29 13:33:00,,0830.7,5.01,0.00,23.1,21.4,00.0,32.0,24.8,08.4,0000.0,0002.29,0001.62,0001.39
2022-10-29 13:34:00,,0830.8,4.99,0.00,23.0,21.4,00.0,32.0,24.8,08.3,0000.0,0002.29,0001.64,0001.41
2022-10-29 13:35:00,,0830.7,5.01,0.00,23.0,21.4,00.0,32.0,24.8,08.4,0000.0,0002.28,0001.65,0001.44
2022-10-29 13:36:00,,0830.8,5.00,0.00,23.0,21.4,00.0,31.9,24.8,08.5,0000.0,0002.37,0001.71,0001.48
2022-10-29 13:37:00,,0830.8,5.00,0.00,23.0,21.4,00.0,31.9,24.8,08.4,0000.0,0002.35,0001.73,0001.52
2022-10-29 13:38:00,,0830.8,5.00,0.00,23.0,21.4,00.0,31.9,24.8,08.5,0000.0,0002.42,0001.78,0001.57
2022-10-29 13:39:00,,0830.7,5.01,0.00,23.0,21.4,00.0,31.9,24.8,08.4,0000.0,0002.51,0001.83,0001.61
2022-10-29 13:40:00,,0830.7,5.01,0.00,23.0,21.4,00.0,31.9,24.8,08.3,0000.0,0002.50,0001.84,0001.62
2022-10-29 13:41:00,,0830.8,4.99,0.00,23.0,21.4,00.0,31.9,24.8,08.1,0000.0,0002.44,0001.83,0001.62
2022-10-29 13:42:00,,0830.8,5.01,0.00,23.0,21.4,00.0,31.9,24.7,08.3,0000.0,0002.42,0001.85,0001.65
2022-10-29 13:43:00,,0830.8,5.01,0.00,23.0,21.4,00.0,31.9,24.8,08.3,0000.0,0002.36,0001.85,0001.67
2022-10-29 13:44:00,,0830.8,4.98,0.00,23.0,21.4,00.0,31.9,24.8,08.7,0000.0,0002.38,0001.87,0001.70
2022-10-29 13:45:00,,0830.8,5.01,0.00,23.0,21.4,00.0,31.9,24.8,09.0,0000.0,0002.46,0001.93,0001.73
2022-10-29 13:46:00,,0830.8,5.01,0.00,23.0,21.4,00.0,31.9,24.8,08.8,0000.0,0002.57,0001.99,0001.75
2022-10-29 13:47:00,,0830.7,4.99,0.00,23.0,21.4,00.0,31.9,24.8,08.6,0000.0,0002.52,0001.98,0001.76
2022-10-29 13:48:00,,0830.8,5.01,0.00,23.0,21.4,00.0,31.9,24.8,08.2,0000.0,0002.46,0001.96,0001.76
2022-10-29 13:49:00,,0830.7,5.02,0.00,23.0,21.3,00.0,31.9,24.8,08.1,0000.0,0002.50,0001.92,0001.73
2022-10-29 13:50:00,,0830.8,4.98,0.00,23.0,21.3,00.0,31.9,24.8,08.0,0000.0,0002.47,0001.91,0001.72
2022-10-29 13:51:00,,0830.8,5.01,0.00,22.9,21.3,00.0,31.8,24.8,08.0,0000.0,0002.51,0001.92,0001.72
2022-10-29 13:52:00,,0830.8,5.00,0.00,22.9,21.3,00.0,31.8,24.8,07.9,0000.0,0002.50,0001.91,0001.71
2022-10-29 13:53:00,,0830.8,4.99,0.00,23.0,21.3,00.0,31.8,24.8,07.9,0000.0,0002.48,0001.88,0001.68
2022-10-29 13:54:00,,0830.8,5.00,0.00,22.9,21.3,00.0,31.8,24.7,08.1,0000.0,0002.92,0001.84,0001.66
2022-10-29 13:55:00,,0830.8,5.01,0.00,22.9,21.3,00.0,31.8,24.8,08.1,0000.0,0003.41,0001.79,0001.62
2022-10-29 13:56:00,,0830.9,5.01,0.00,22.9,21.4,00.0,31.8,24.8,08.1,0000.0,0003.36,0001.75,0001.58
2022-10-29 13:57:00,,0830.8,4.98,0.00,22.9,21.4,00.0,31.8,24.8,08.0,0000.0,0003.24,0001.68,0001.55
2022-10-29 13:58:00,,0830.8,5.01,0.00,22.9,21.3,00.0,31.8,24.7,08.0,0000.0,0003.20,0001.65,0001.52
2022-10-29 13:59:00,,0830.8,5.01,0.00,22.9,21.3,00.0,31.8,24.7,08.1,0000.0,0003.23,0001.66,0001.51
